Location: Cardito
(40.9500°N, 14.3000°E)
Time: 16:31:17
(UTC+00:00)

Daily predictions for brighter satellites

Satellite Brightness Start Highest point End
(mag) Time Altitude Azimuth Time Altitude Azimuth Time Altitude Azimuth
USA 186 1.3 18:38:35 10° SSE 18:41:24 85° ENE 18:44:00 10° N
Cosmos 1076 Rocket 3.6 18:39:15 10° S 18:43:36 89° W 18:48:00 10° N
SL-16 R/B 2.6 18:39:58 10° NNW 18:45:29 49° ENE 18:50:57 10° SE
Nadezhda 4 Rocket 4.0 18:41:32 10° S 18:47:42 77° E 18:53:59 10° N
Cosmos 1680 Rocket 3.7 18:44:32 10° S 18:49:35 48° ESE 18:54:38 10° NNE
Cosmos 2112 Rocket 4.4 18:46:27 10° S 18:51:25 43° ESE 18:56:22 10° NNE
Cosmos 1151 Rocket 4.4 18:52:33 10° NNE 18:55:59 22° ENE 18:59:15 11° SE
BREEZE-M DEB (TANK) 3.0 18:54:44 10° WSW 18:57:39 79° NNW 19:06:28 10° ENE
SL-19 R/B 4.5 18:54:21 10° SSE 18:58:15 75° ENE 19:02:47 10° NNW
ISS -1.2 18:57:48 10° W 18:59:57 16° SW 19:02:05 10° S
Cosmos 1271 Rocket 3.1 18:57:58 10° N 19:01:51 47° ENE 19:05:42 10° SSE
Cosmos 1633 4.2 19:00:04 10° SSW 19:03:26 37° WNW 19:06:49 10° N
ATLAS 3B R/B 3.6 18:56:45 10° NW 19:03:38 50° WSW 19:10:44 10° S
COSMOS 2455 3.7 19:01:53 10° SSE 19:06:44 26° ESE 19:11:35 10° NE
ERS-2 2.5 19:05:31 10° NNE 19:08:59 41° E 19:12:25 10° S
Cosmos 332 Rocket 4.2 19:07:09 10° NNW 19:12:00 65° WSW 19:16:51 10° S
GEOS 3 Rocket 3.6 19:06:53 10° NE 19:12:07 89° WNW 19:17:12 10° SW
Meteor 2-3 Rocket 3.7 19:07:02 10° S 19:12:42 80° E 19:18:29 10° NNE
NOSS 2-1 (C) 3.0 19:12:24 10° SW 19:15:47 73° NW 19:19:03 10° NNE
Ariane Rocket 3.0 19:11:29 10° SSE 19:16:31 73° ENE 19:21:35 10° N
Cosmos 2098 Rocket 4.5 19:15:05 10° SW 19:18:16 35° WNW 19:22:08 10° N
Cosmos 220 Rocket 4.3 19:14:10 10° N 19:18:27 52° ENE 19:21:43 17° SE
Cosmos 2360 Rocket 2.8 19:13:29 10° N 19:18:48 41° ENE 19:22:50 17° ESE
Helios 1A Rocket 3.6 19:15:23 10° S 19:19:21 54° W 19:23:23 10° NNW
SAR-Lupe-4 3.9 19:16:12 10° N 19:19:47 70° WNW 19:23:20 10° SSW
Cosmos 1328 Rocket 4.5 19:18:14 10° NNE 19:22:13 31° ENE 19:24:39 19° SE
SPOT 3 Rocket 4.0 19:19:12 15° SE 19:23:17 45° ENE 19:28:14 10° N
NOSS 2-1 (D) 3.5 19:20:16 10° SW 19:23:36 58° NW 19:26:51 10° NNE
Cosmos 1766 Rocket 3.8 19:20:10 10° SSE 19:24:23 49° E 19:28:36 10° NNE
Cosmos 2151 4.0 19:22:22 10° SSW 19:26:29 49° W 19:30:40 10° N
Cosmos 1624 Rocket 4.3 19:25:51 10° N 19:30:58 53° ENE 19:34:25 20° SE
Resurs 01 Rocket 1.6 19:27:40 16° SSE 19:31:12 66° ENE 19:35:38 10° N
Cosmos 1553 Rocket 4.4 19:28:13 10° N 19:34:01 44° ENE 19:37:59 20° SE
Gbstr 26 Del rocket 3.7 19:33:30 10° WNW 19:36:57 36° SW 19:39:12 19° SSE
Landsat 7 3.8 19:38:02 18° SSE 19:41:37 78° ENE 19:46:23 10° N
ERS-1 Rocket 4.4 19:40:14 18° E 19:42:15 23° ENE 19:46:09 10° NNE
Cosmos 1862 3.6 19:40:34 25° SSE 19:42:28 44° E 19:46:15 10° NNE
Cosmos 1812 3.1 19:38:56 10° N 19:42:39 43° E 19:44:02 30° SE
Cosmos 1933 4.3 19:38:58 10° NNW 19:42:50 46° W 19:46:40 10° SSW
Cosmos 1782 2.8 19:40:50 10° N 19:44:49 80° W 19:47:38 19° S
Cosmos 1833 4.2 19:40:23 10° SSW 19:46:09 78° ESE 19:51:56 10° NNE
SL-27 R/B 2.7 19:43:34 10° SSW 19:47:08 72° WNW 19:50:45 10° NNE
SPOT 5 3.9 19:52:44 23° E 19:53:51 25° ENE 19:57:32 10° NNE
Cosmos 2333 Rocket 2.9 19:48:43 10° N 19:53:59 38° ENE 19:56:33 25° ESE
BREEZE-M DEB (TANK) 2.8 19:50:59 10° WNW 19:54:13 77° SSW 19:58:28 25° SE
ARIANE 5 R/B 3.6 19:54:19 27° E 19:55:34 32° ENE 19:59:30 10° N
Cosmos 2237 Rocket 4.4 19:53:42 10° NNE 19:55:37 12° NE 19:57:33 10° ENE
Cosmos 2322 Rocket 2.6 19:50:30 10° NNW 19:56:01 59° WSW 20:00:04 18° S
JB-3 4.4 19:52:53 10° NNE 19:56:54 56° E 19:58:22 34° SSE
Cosmos 2322 4.5 19:51:42 10° N 19:57:03 39° ENE 19:59:33 26° ESE
BREEZE-M R/B 2.8 19:54:27 10° SW 20:00:23 54° SSE 20:02:47 18° ENE
Cosmos 1452 Rocket 4.4 19:57:39 10° N 20:02:25 34° ENE 20:04:09 27° E
Cosmos 1500 Rocket 4.2 20:03:07 33° ESE 20:03:31 34° E 20:07:33 10° NNE
BREEZE-M DEB (TANK) 4.2 20:02:57 10° WNW 20:06:50 71° SSW 20:12:58 26° SE
Cosmos 2219 Rocket 2.8 20:02:53 10° N 20:08:10 40° ENE 20:10:11 30° ESE
S3M 4.2 20:02:21 10° N 20:08:39 56° E 20:11:31 32° SE
Cosmos 2056 Rocket 3.7 20:07:31 10° NNW 20:12:47 66° WSW 20:15:29 28° S
ATLAS 5 CENTAUR R/B 3.2 20:09:05 10° NNW 20:14:17 37° NE 20:17:08 25° E
Meteor 2-14 Rocket 4.5 20:09:10 11° S 20:15:08 82° W 20:21:18 10° N
Spot 2 Rocket 3.5 20:14:03 39° SE 20:15:55 68° ENE 20:21:00 10° N
SPOT 1/Viking Rocket 3.6 20:14:27 29° S 20:17:11 76° WSW 20:22:25 10° NNW
Meteor 1-27 Rocket 4.2 20:11:52 10° N 20:17:21 44° ENE 20:18:58 36° ESE
USA 245 3.3 20:16:53 45° SSE 20:18:09 88° WSW 20:21:51 10° NNW
Cosmos 1408 Rocket 3.5 20:17:00 32° SSW 20:18:57 84° W 20:23:18 10° N
Cosmos 1655 Rocket 4.0 20:19:07 29° S 20:22:33 70° E 20:28:55 10° NNE
Cosmos 1743 Rocket 3.5 20:25:39 57° ESE 20:26:03 60° E 20:30:24 10° NNE
CZ-2C R/B 4.1 20:23:08 10° N 20:27:33 60° WNW 20:30:27 20° SSW
SL-16 R/B 4.1 20:24:50 10° NW 20:29:13 23° W 20:33:33 10° SSW
CARTOSAT-1 3.5 20:29:08 58° S 20:29:59 86° W 20:34:19 10° NNW
GP-B 4.3 20:26:36 10° NNW 20:30:45 40° W 20:33:39 18° SW
Cosmos 494 Rocket 4.1 20:31:20 48° ESE 20:31:28 48° ESE 20:36:23 10° NNE
Lacrosse 5 1.8 20:33:37 53° SSE 20:34:20 59° SE 20:39:19 10° NE
NOSS 3-1 (C) 4.1 20:29:09 10° NW 20:36:55 85° WSW 20:40:55 37° SSE
APEX 4.4 20:38:57 49° SE 20:39:53 54° ESE 20:46:17 10° NNE
Cosmos 2333 4.2 20:34:42 10° NNW 20:40:19 78° WSW 20:41:51 49° S
Meteor 1-10 Rocket 4.4 20:39:20 10° NNW 20:44:49 66° W 20:46:47 40° SSW
COSMOS 2487 3.4 20:45:40 43° WNW 20:45:44 43° WNW 20:48:59 10° N
Cosmos 468 4.4 20:47:12 50° SSW 20:48:36 88° ESE 20:53:52 10° NNE
Cosmos 1515 Rocket 4.2 20:46:43 10° NNW 20:50:57 48° W 20:51:45 42° SW
Meteor 1-25 Rocket 4.4 20:51:22 48° E 20:51:22 48° E 20:56:42 10° NNE
COSMOS 2455 3.6 20:46:28 10° SW 20:52:18 51° NW 20:58:10 10° NNE
COSMOS 2428 2.6 20:47:14 10° NNW 20:52:57 75° ENE 20:53:52 61° SE
Terra 1.7 20:54:30 76° ESE 20:54:42 78° ENE 20:59:28 10° N
USA 229 DEB 3.9 20:47:37 10° NNW 20:55:03 81° NE 20:57:36 47° SE
USA 229 3.9 20:47:43 10° NNW 20:55:09 80° NE 20:57:42 47° SE
IRIDIUM 103 4.3 20:51:53 10° N 20:57:04 62° E 20:57:11 61° E
Cosmos 1048 Rocket 4.1 20:59:48 43° SW 21:01:25 68° WNW 21:06:33 10° NNE
Cosmos 2360 Rocket 3.7 20:57:51 10° NW 21:02:34 28° WSW 21:04:36 22° SW
Cosmos 2084 Rocket 4.3 20:58:43 10° NNW 21:02:26 42° NE 21:02:26 42° NE
Cosmos 972 Rocket 4.5 21:01:58 30° SW 21:04:18 55° WNW 21:09:11 10° N
Resurs 01 Rocket 4.4 21:06:48 10° WSW 21:08:07 11° W 21:09:25 10° WNW
Cosmos 489 Rocket 4.5 21:06:25 39° SSW 21:08:56 81° WNW 21:15:20 10° NNE
IRIDIUM 106 4.2 21:10:06 10° N 21:15:21 90° WSW 21:15:24 88° S
NOSS 3-1 (A) 4.1 21:07:58 10° NW 21:15:44 81° WSW 21:18:16 51° SSE
Cosmos 1707 Rocket 4.5 21:13:29 10° N 21:16:40 41° NNE 21:16:40 41° NNE
H-2A R/B 4.3 21:14:00 10° NNE 21:17:03 47° NNE 21:17:03 47° NNE
Meteor 1-19 Rocket 4.4 21:13:21 10° N 21:18:30 53° ENE 21:18:30 53° ENE
Cosmos 1980 4.1 21:13:53 10° NNW 21:19:22 48° ENE 21:19:35 47° ENE
ERS-1 Rocket 3.7 21:20:14 40° WSW 21:20:46 42° W 21:25:31 10° NNW
Gblst 52 Del rocket 4.4 21:17:55 10° NW 21:24:07 83° SW 21:24:54 71° SSE
Cosmos 2228 Rocket 3.9 21:23:04 10° NNW 21:26:53 48° WNW 21:26:53 48° WNW
Cosmos 2297 Rocket 2.5 21:31:26 53° ENE 21:31:26 53° ENE 21:35:58 10° NNE
SPOT 5 4.2 21:31:58 28° W 21:31:58 28° W 21:35:41 10° NW
ARIANE 5 R/B 4.4 21:31:52 23° W 21:32:02 23° W 21:35:34 10° NW
Cosmos 2285 Rocket 4.3 21:26:07 10° NNW 21:32:13 55° WSW 21:33:03 51° SW
BREEZE-M DEB (TANK) 4.2 21:32:25 10° NW 21:34:37 25° NW 21:34:37 25° NW
Cosmos 2315 Rocket 4.4 21:30:17 10° NNW 21:36:30 57° W 21:37:36 50° SW
NOSS 0 Rocket 3.8 21:31:26 10° NNW 21:37:41 86° WSW 21:37:53 84° SSW
Cosmos 2333 Rocket 3.4 21:33:14 10° NW 21:38:05 30° WSW 21:38:33 30° WSW
Cosmos 2237 Rocket 2.3 21:35:09 10° NNW 21:40:34 66° NE 21:40:34 66° NE
Cosmos 2227 Rocket 2.8 21:44:50 45° NE 21:44:50 45° NE 21:48:55 10° NNE
Cosmos 1745 Rocket 4.3 21:50:35 54° ENE 21:50:35 54° ENE 21:56:11 10° NNE
Meteor 1-14 Rocket 4.5 21:51:39 60° NE 21:51:39 60° NE 21:56:25 10° NNE
Cosmos 2219 Rocket 3.5 21:47:12 10° NW 21:51:53 28° WSW 21:51:54 28° WSW
ATLAS 5 CENTAUR R/B 3.1 21:53:30 10° NW 21:58:38 44° WSW 21:58:38 44° WSW
BREEZE-M DEB (TANK) 4.4 21:43:59 10° WSW 21:59:14 76° NNW 22:02:13 26° ENE
Nadezhda 1 Rocket 4.1 22:00:34 10° N 22:06:40 69° ENE 22:06:40 69° ENE
SL-16 R/B 3.0 22:07:54 10° N 22:12:56 42° NE 22:12:56 42° NE
NOSS 2-2 (C) 4.5 22:08:57 10° NW 22:14:24 83° WNW 22:14:24 83° WNW
Lacrosse 5 3.6 22:13:09 10° W 22:17:35 30° NNW 22:22:02 10° NNE
Terra 4.5 22:33:24 10° W 22:33:24 10° W 22:33:53 10° WNW
Timation 2 Rocket 4.1 22:39:27 65° NNW 22:39:27 65° NNW 22:45:06 10° NNE
CZ-4C R/B 3.5 22:31:50 10° NNW 22:38:58 53° NE 22:41:11 42° E
Meteor 2-4 Rocket 4.4 22:35:56 10° NNW 22:40:46 48° WNW 22:40:46 48° WNW
CZ-3B R/B 4.2 22:37:22 10° NW 22:39:48 22° WNW 22:39:48 22° WNW
USA 267 3.2 22:41:23 10° NE 22:47:56 79° NW 22:48:10 78° WNW
Cosmos 2219 4.2 22:48:17 38° WNW 22:48:36 38° WNW 22:53:59 10° N
Cosmos 2082 4.3 23:01:12 56° NNW 23:01:12 56° NNW 23:05:58 10° NNE
Meteor 1-11 Rocket 4.3 23:05:19 52° NNW 23:05:19 52° NNW 23:09:36 10° N
Cosmos 2181 Rocket 4.1 23:07:15 10° N 23:12:46 70° N 23:12:46 70° N
Cosmos 2297 Rocket 4.2 23:13:12 18° WNW 23:14:53 21° NW 23:19:05 10° N
USA 234 3.7 23:18:03 42° E 23:20:05 58° NE 23:26:29 10° NW
Cosmos 2237 Rocket 4.4 23:20:45 10° WNW 23:22:23 15° WNW 23:22:23 15° WNW
Cosmos 2227 Rocket 4.0 23:26:37 20° WNW 23:27:50 22° NW 23:32:08 10° N
Cosmos 2263 Rocket 2.7 23:33:28 55° NNE 23:33:28 55° NNE 23:37:53 10° NNE
Cosmos 2344 3.4 23:34:40 69° ESE 23:34:40 69° ESE 23:42:04 10° NE
Cosmos 1603 4.3 23:36:29 10° NNW 23:41:31 53° NE 23:41:31 53° NE
ASTEX 1 4.4 23:46:47 44° NNE 23:46:47 44° NNE 23:50:14 10° N
